Alabaster, AL

3:15 AM CDT on October 22, 2019 (GMT -0500)
Shelby County

Weather History for KEET - August, 2019

Change the Weather History Date:

Wednesday, August 21, 2019

  Actual Average Record
Temperature  
Mean Temperature 83 °F 80 °F  
Max Temperature 94 °F 90 °F 100 °F (1983)
Min Temperature 72 °F 70 °F 56 °F (1976)
Cooling Degree Days 18 15  
Month to date cooling degree days 393 327  
Year to date cooling degree days 1682 1457  
Since 1 June cooling degree days 1285 1188  
Growing Degree Days 32 (Base 50)    
Moisture  
Dew Point 70 °F    
Average Humidity 67    
Maximum Humidity 93    
Minimum Humidity 41    
Precipitation  
Precipitation 0.00 in 0.16 in 3.07 in (1954)
Month to date precipitation 0.79 3.25  
Year to date precipitation 32.07 36.57  
Sea Level Pressure  
Sea Level Pressure 30.06 in    
Wind  
Wind Speed 3 mph (SSW)    
Max Wind Speed 13 mph    
Max Gust Speed 22 mph    
Visibility 10 miles    
Events      
T = Trace of Precipitation, MM = Missing Value Source: NWS Daily Summary

Daily Weather History Graph

Daily Weather History Graph

Search for Another Location

Airport or City:

Astronomy

Aug. 21, 2019 Rise Set
Actual Time 6:13 AM CDT 7:26 PM CDT
Civil Twilight 5:48 AM CDT 7:51 PM CDT
Nautical Twilight 5:17 AM CDT 8:22 PM CDT
Astronomical Twilight 4:45 AM CDT 8:54 PM CDT
Moon 11:01 PM CDT (8/21) 11:32 AM CDT (8/21)
Length of Visible Light 14h 03m
Length of Day
13h 12m
Waning Gibbous, 69% of the Moon is Illuminated
Aug 21
Waning Gibbous
Aug 23
Last Quarter
Aug 30
New
Sep 5
First Quarter
Sep 13
Full

Hourly Weather History & Observations

Time (CDT) Temp. Heat Index Dew Point Humidity Pressure Visibility Wind Dir Wind Speed Gust Speed Precip Events Conditions
12:53 AM 73.9 °F - 71.1 °F 91% 30.09 in 10.0 mi South 5.8 mph - N/A   Clear
1:15 AM 73.9 °F - 71.1 °F 91% 30.10 in 10.0 mi Calm Calm - N/A   Mostly Cloudy
1:53 AM 73.9 °F - 71.1 °F 91% 30.06 in 10.0 mi South 5.8 mph - N/A   Overcast
2:11 AM 73.9 °F - 71.1 °F 91% 30.07 in 10.0 mi South 4.6 mph - N/A   Scattered Clouds
2:53 AM 73.9 °F - 70.0 °F 87% 30.03 in 10.0 mi South 4.6 mph - N/A   Clear
3:53 AM 73.0 °F - 70.0 °F 90% 30.04 in 10.0 mi Calm Calm - N/A   Clear
4:53 AM 72.0 °F - 70.0 °F 93% 30.05 in 10.0 mi Calm Calm - N/A   Clear
5:53 AM 72.0 °F - 70.0 °F 93% 30.06 in 10.0 mi Calm Calm - N/A   Clear
6:53 AM 73.0 °F - 71.1 °F 93% 30.08 in 10.0 mi Calm Calm - N/A   Clear
7:53 AM 75.9 °F - 71.1 °F 85% 30.09 in 10.0 mi SE 3.5 mph - N/A   Clear
8:53 AM 79.0 °F - 71.1 °F 77% 30.10 in 10.0 mi South 6.9 mph - N/A   Mostly Cloudy
9:27 AM 81.0 °F 84.9 °F 71.1 °F 72% 30.13 in 10.0 mi SW 5.8 mph - N/A   Scattered Clouds
9:53 AM 81.0 °F 84.9 °F 71.1 °F 72% 30.11 in 10.0 mi West 3.5 mph - N/A   Mostly Cloudy
10:45 AM 84.0 °F 88.4 °F 70.0 °F 63% 30.14 in 10.0 mi Variable 5.8 mph - N/A   Mostly Cloudy
10:53 AM 84.0 °F 88.4 °F 70.0 °F 63% 30.12 in 10.0 mi North - - N/A   Scattered Clouds
11:53 AM 84.9 °F 88.8 °F 69.1 °F 59% 30.11 in 10.0 mi Calm Calm - N/A   Mostly Cloudy
12:53 PM 87.1 °F 91.3 °F 69.1 °F 55% 30.09 in 10.0 mi West 4.6 mph - N/A   Mostly Cloudy
1:53 PM 88.0 °F 92.1 °F 69.1 °F 53% 30.06 in 10.0 mi WSW 6.9 mph - N/A   Mostly Cloudy
2:53 PM 93.0 °F 97.4 °F 68.0 °F 44% 30.02 in 10.0 mi Variable 4.6 mph - N/A   Mostly Cloudy
3:53 PM 93.0 °F 96.4 °F 66.9 °F 42% 30.01 in 10.0 mi SSE 4.6 mph - N/A   Partly Cloudy
4:53 PM 93.9 °F 97.5 °F 66.9 °F 41% 30.00 in 10.0 mi SSE 6.9 mph - N/A   Partly Cloudy
5:53 PM 91.0 °F 94.3 °F 66.9 °F 45% 29.99 in 10.0 mi Variable 6.9 mph - N/A   Clear
6:53 PM 89.1 °F 92.1 °F 66.9 °F 48% 30.00 in 10.0 mi SSW 5.8 mph - N/A   Clear
7:53 PM 81.0 °F 84.1 °F 69.1 °F 67% 30.03 in 10.0 mi WSW 5.8 mph - N/A   Clear
8:53 PM 79.0 °F - 69.1 °F 72% 30.04 in 10.0 mi Calm Calm - N/A   Clear
9:53 PM 78.1 °F - 70.0 °F 76% 30.06 in 10.0 mi Calm Calm - N/A   Clear
10:53 PM 75.0 °F - 70.0 °F 84% 30.06 in 10.0 mi Calm Calm - N/A   Clear
11:53 PM 73.9 °F - 71.1 °F 91% 30.06 in 10.0 mi Calm Calm - N/A   Clear